Theta_e
314 314 314 314 314 314 314 314 314 315 315 315 315 315 315 316 315 315 316 316 316 316 316 317 317 317 318 318 318 318 318 318 318 318 317 317 317 316 316 314 313 312
311 311 311 311 311 311 311 311 311 311 312 312 312 313 313 313 313 314 314 314 314 314 314 314 315 315 315 315 315 315 315 315 315 315 315 315 316 316 316 316 315 314
310 310 310 310 309 309 309 310 310 310 310 310 311 311 311 311 312 312 312 312 313 313 313 313 313 314 314 313 314 314 314 314 314 313 313 313 314 315 315 315 315 314
309 309 309 309 309 309 309 309 309 309 309 309 309 310 310 310 310 311 311 311 312 312 312 312 312 312 313 312 313 312 313 313 313 312 312 312 312 312 313 313 313 313
309 309 309 308 308 308 308 308 308 308 308 308 308 309 309 309 309 309 310 310 310 311 311 311 310 311 311 311 311 312 312 312 311 311 310 310 310 310 310 310 311 311
309 309 309 309 308 308 308 308 308 308 308 308 308 308 308 308 308 308 308 309 309 309 309 309 309 309 309 310 310 310 310 310 310 309 309 308 309 308 308 308 308 309
309 308 309 308 308 308 308 308 308 308 308 307 307 307 307 307 307 307 307 307 307 308 308 308 308 308 308 308 309 309 309 309 309 308 307 307 307 307 307 307 307 307
308 308 308 308 307 307 307 307 307 307 307 307 307 307 306 306 306 306 306 306 306 306 306 306 306 306 306 306 307 307 307 308 308 307 306 306 306 306 306 306 306 306
307 307 307 307 307 307 306 306 306 305 306 306 306 306 306 306 306 305 306 305 305 305 305 305 305 305 305 305 305 305 306 306 306 306 305 304 304 305 305 305 305 305
307 307 307 307 307 306 306 306 306 305 305 305 305 305 305 304 304 304 304 304 304 304 304 304 304 304 304 304 304 304 304 304 304 303 303 303 303 303 303 303 304 304
307 306 306 306 306 306 306 306 306 306 306 306 306 305 305 304 304 303 303 303 303 303 303 303 303 304 304 304 304 303 303 303 302 301 301 301 301 302 302 302 302 303
305 305 305 305 304 305 305 305 305 305 305 305 305 305 305 305 305 304 303 303 303 303 303 303 303 303 303 303 303 303 302 302 301 300 300 299 300 300 301 301 301 302
301 300 300 300 300 300 300 300 301 301 301 302 302 303 304 304 305 305 304 304 304 303 303 303 303 303 302 302 302 302 302 301 301 300 299 298 298 299 299 300 300 300
296 296 296 296 296 296 296 296 296 296 296 296 297 298 299 300 301 302 302 303 304 304 304 303 303 303 302 301 301 301 301 301 301 300 299 298 298 298 298 299 299 299
294 294 294 294 294 294 294 294 294 294 294 294 294 295 295 295 296 297 297 298 299 300 301 302 303 303 303 302 301 300 300 300 300 300 299 298 298 298 298 298 298 298
293 293 293 293 293 293 294 293 293 293 293 293 293 293 293 294 294 294 294 295 296 296 297 298 299 300 302 302 301 300 299 299 299 299 299 298 297 297 297 297 297 298
292 292 292 292 292 292 292 292 292 292 292 292 292 292 292 292 292 293 293 293 294 294 294 295 295 296 298 299 300 301 299 298 298 298 298 298 298 297 297 297 297 297
290 291 291 291 291 291 291 291 291 291 291 291 291 291 291 291 291 291 292 292 292 292 293 293 293 293 294 296 297 298 299 298 297 297 297 297 297 297 297 297 297 297
290 291 291 291 291 291 291 291 291 291 291 291 291 291 291 291 291 291 291 291 291 291 291 292 292 292 292 293 294 295 297 297 296 296 296 296 296 296 296 296 296 296
291 291 291 291 291 291 291 291 291 291 290 290 290 290 290 290 290 290 290 290 290 290 291 291 291 291 291 292 292 293 294 295 295 295 295 295 295 295 296 296 296 296
290 290 290 290 290 290 290 290 290 290 290 290 290 290 290 290 290 290 290 290 290 290 290 290 291 291 291 291 291 292 292 293 294 294 294 294 295 295 295 296 295 295
290 290 290 290 290 290 290 290 290 290 290 290 290 290 290 290 290 290 290 290 290 290 290 290 290 290 290 290 291 291 291 292 292 293 293 294 294 295 295 295 295 294
289 289 289 289 289 289 289 289 289 289 290 289 289 290 290 290 290 290 290 290 290 290 290 290 290 290 290 290 290 290 290 291 291 292 292 293 293 294 294 294 294 294
289 289 288 289 289 289 289 289 289 289 289 289 289 289 289 290 290 290 290 290 290 290 290 289 290 290 290 290 290 290 290 290 290 291 291 292 293 293 294 293 293 293
289 289 289 289 289 289 289 289 289 289 289 289 289 289 289 289 289 289 289 289 289 289 289 289 289 290 290 290 290 290 289 289 289 290 291 291 292 292 293 293 293 293
289 289 289 289 289 289 289 289 289 289 289 289 289 289 289 289 289 289 289 289 289 289 289 289 289 289 290 290 289 289 289 289 289 289 290 290 291 291 292 292 292 292
Wind_Speed
7 8 9 10 10 11 11 10 11 11 12 12 13 13 14 13 14 17 18 18 19 20 21 20 20 22 25 27 29 30 30 29 27 27 28 30 31 32 34 34 34 35
6 6 6 7 8 9 10 11 12 12 14 15 14 15 16 15 16 18 18 17 17 17 19 19 19 18 17 19 21 23 26 26 26 26 28 30 31 32 34 35 34 35
3 2 3 4 5 6 7 9 10 11 13 14 14 14 15 16 16 16 17 17 17 17 18 20 21 21 19 18 18 18 21 22 23 25 29 31 32 33 35 35 35 35
3 1 0 2 3 4 5 6 7 8 10 11 12 12 13 14 14 15 16 17 17 19 20 20 21 22 23 23 22 22 24 25 24 24 26 30 32 33 36 36 35 36
5 4 3 3 3 4 5 6 7 8 9 10 11 11 12 13 13 14 15 15 16 18 19 19 18 20 22 24 25 26 28 29 29 26 26 29 29 30 32 33 34 36
8 8 7 7 7 7 7 8 8 8 9 10 10 10 11 12 12 13 14 15 15 16 18 18 18 19 21 24 26 28 29 29 29 28 27 29 30 29 29 29 30 33
12 12 11 11 10 10 10 9 9 9 9 10 10 10 11 11 12 12 13 14 15 16 17 18 19 19 20 23 26 28 29 29 30 28 28 28 29 30 31 30 31 33
15 15 15 14 13 13 12 12 11 11 10 10 10 10 10 11 11 12 12 13 14 16 16 17 18 19 20 21 24 27 28 29 29 29 29 30 30 32 33 32 33 34
16 16 16 16 15 15 15 14 13 13 12 12 12 11 11 10 10 11 12 13 14 15 16 17 18 19 20 21 24 26 27 28 29 30 30 31 32 33 33 32 33 35
17 17 17 17 18 17 17 17 16 16 16 16 15 14 13 12 11 11 11 12 13 14 15 17 18 19 20 21 23 24 26 27 28 29 30 31 32 33 33 33 33 35
18 19 19 19 19 19 18 18 18 18 19 19 19 19 18 17 16 15 15 15 15 15 16 17 17 18 19 21 22 23 25 26 26 28 29 31 32 33 33 33 34 35
19 19 20 20 19 19 18 18 19 19 19 20 20 20 20 20 20 20 20 19 19 19 19 19 19 20 20 21 22 23 24 25 26 27 29 30 32 33 33 34 34 36
19 19 19 19 19 19 19 18 19 19 19 20 20 20 20 20 21 21 21 22 21 21 21 21 22 22 22 22 22 23 24 25 26 27 28 29 30 32 32 33 34 36
19 18 19 19 19 19 19 19 19 20 20 20 20 20 20 20 20 21 21 21 21 21 22 23 23 24 24 23 23 24 24 26 27 27 28 30 30 31 32 32 34 35
18 19 19 20 20 20 20 21 21 21 21 21 21 21 21 21 21 21 21 21 21 21 21 21 22 23 24 24 24 25 25 26 27 28 29 30 32 32 33 33 33 35
19 20 21 21 21 22 22 22 23 23 23 24 23 23 23 23 23 23 23 22 22 22 22 22 22 22 22 23 24 24 25 26 27 29 29 30 32 33 34 34 34 35
20 21 21 22 22 22 22 23 23 24 24 25 25 25 25 26 26 26 25 25 24 24 24 24 25 24 22 22 22 23 25 26 27 29 30 31 32 33 35 35 35 35
20 21 21 22 22 22 23 24 24 25 25 25 26 26 26 27 27 27 27 27 26 27 27 27 28 27 25 24 23 22 23 25 27 28 29 30 30 31 33 35 35 37
20 21 22 22 23 23 24 24 25 26 26 26 27 27 27 28 28 28 28 28 28 28 29 29 30 30 28 27 26 25 24 24 26 28 29 30 29 29 31 33 35 37
21 22 22 23 24 25 25 26 27 27 28 28 29 29 30 31 31 31 31 30 31 31 31 33 33 32 31 30 29 29 27 25 26 29 30 31 30 29 31 33 34 34
22 23 23 24 25 25 26 27 28 29 30 30 31 31 32 33 34 34 34 34 35 35 35 38 38 36 34 33 32 31 30 28 28 30 31 33 34 33 33 34 33 31
23 24 24 25 26 27 28 29 29 30 31 32 33 34 35 36 37 36 37 38 39 39 39 42 43 40 38 37 36 33 33 31 31 32 33 34 36 37 36 35 31 28
24 25 26 26 27 28 29 31 31 33 33 34 35 37 38 39 40 41 42 42 42 42 42 43 46 45 41 40 40 36 34 33 33 32 34 36 37 39 39 37 33 29
25 26 27 28 29 31 32 33 34 35 36 36 37 39 41 42 43 44 45 44 43 44 43 43 46 48 44 41 42 40 35 33 33 33 35 37 39 41 41 40 36 34
26 27 28 29 31 32 33 34 36 36 37 38 39 40 42 44 44 44 46 47 46 45 45 44 46 49 49 45 44 43 38 34 33 33 34 38 40 41 42 42 39 36
25 26 28 29 31 32 33 34 35 36 37 39 39 40 42 43 44 44 45 48 48 46 46 46 45 47 50 48 46 44 40 35 32 33 35 38 41 41 41 42 41 37
Wind_Direction
231 242 253 261 265 270 274 274 274 271 268 268 268 269 271 273 275 275 273 270 269 267 265 263 259 258 258 256 256 256 257 256 255 253 251 251 252 250 248 248 246 247
220 238 252 265 274 280 284 283 280 277 277 275 274 277 279 280 280 279 276 273 271 271 270 268 265 261 260 259 257 255 255 254 252 252 252 253 255 254 253 252 249 248
182 220 250 272 283 287 287 288 289 289 289 288 286 287 288 287 286 283 281 279 276 275 275 274 273 270 266 264 262 260 259 257 256 256 256 255 254 254 255 254 253 252
131 150 251 303 305 308 309 309 313 311 308 307 304 301 297 294 292 290 287 286 283 280 278 277 275 274 272 270 267 265 264 262 261 260 258 257 256 255 256 255 254 254
103 89 63 34 10 0 355 350 344 334 325 320 317 312 308 303 300 297 295 291 288 285 282 279 276 275 275 273 270 268 267 266 264 261 258 258 257 256 256 256 255 254
87 74 64 51 39 32 24 14 4 353 341 333 329 324 318 313 308 305 303 298 293 290 288 284 281 279 278 277 275 272 269 268 268 265 261 260 260 259 258 257 257 256
82 74 67 60 51 45 38 29 20 9 359 351 344 339 330 323 319 313 308 302 297 293 290 288 285 282 281 280 279 277 274 272 271 269 266 265 264 263 262 261 260 259
81 76 69 64 58 52 45 39 32 25 18 10 3 358 349 340 332 324 317 311 304 300 296 292 288 285 283 281 280 280 279 276 275 272 270 268 267 266 265 264 262 261
76 74 69 62 56 50 45 41 35 31 26 21 17 13 5 357 348 336 329 322 316 313 308 302 298 293 289 285 283 282 282 280 279 276 273 271 269 268 267 265 264 263
71 69 67 62 56 49 43 38 33 29 25 21 18 15 11 6 358 349 343 335 328 324 319 313 310 306 301 296 292 290 288 285 283 280 277 274 272 271 270 267 265 264
69 66 64 61 57 50 44 39 34 29 25 22 19 15 11 8 4 358 353 347 341 335 330 326 321 315 310 306 302 299 296 292 289 285 280 277 275 273 271 269 267 266
64 60 58 56 52 47 41 36 32 28 24 21 18 15 11 8 6 2 358 353 349 344 340 335 331 326 320 316 312 308 304 298 294 290 286 282 279 276 274 272 269 268
56 52 50 48 44 40 35 31 28 24 21 18 14 12 10 8 5 2 359 357 353 349 345 340 336 332 326 323 320 314 309 304 299 295 291 287 283 279 277 275 272 270
49 45 43 41 37 32 28 24 21 18 15 13 10 7 6 3 1 359 357 355 353 350 348 344 340 337 332 328 324 319 313 308 303 300 295 291 288 284 281 278 275 273
42 38 35 33 29 24 21 17 14 11 9 7 5 3 1 359 356 355 352 350 349 347 346 344 341 338 334 330 326 320 315 309 304 301 297 293 290 288 284 281 278 276
37 33 30 27 24 19 16 12 9 7 4 2 1 359 357 355 353 351 349 346 345 342 340 339 337 335 332 329 325 320 315 309 305 301 298 294 291 288 287 284 281 278
34 30 27 24 20 16 12 9 6 4 1 359 358 355 353 352 350 348 347 344 341 338 336 335 333 333 330 326 323 320 314 307 303 300 298 294 291 288 286 284 282 280
31 26 23 19 15 11 7 4 2 360 357 354 353 351 349 348 346 344 343 341 338 335 332 331 331 332 330 326 323 320 314 307 300 296 293 290 288 286 284 282 281 280
24 20 17 12 8 4 1 359 356 354 352 349 347 346 344 342 341 339 337 335 333 330 327 325 327 330 329 326 324 321 317 308 299 294 290 286 284 283 282 281 280 279
16 12 9 4 0 357 354 353 351 349 347 345 343 341 340 338 337 335 333 332 329 326 323 321 322 325 326 324 323 321 318 311 301 296 291 287 285 283 281 281 280 278
8 5 2 358 354 352 350 348 347 345 344 342 339 338 337 335 334 332 330 328 327 325 322 320 321 323 323 321 320 319 317 311 303 298 294 290 288 285 282 281 279 277
2 359 357 354 350 348 346 345 344 342 341 340 337 335 334 333 331 330 327 326 326 324 321 319 319 320 320 318 317 316 314 309 303 300 296 293 291 290 287 283 280 275
358 355 352 350 348 347 344 343 342 340 339 338 335 333 331 330 329 327 325 324 323 321 319 317 316 317 317 316 315 313 310 306 302 298 295 293 293 293 290 285 282 276
354 352 350 348 346 344 343 341 339 338 337 335 333 331 328 327 326 324 323 322 320 319 317 314 313 314 314 313 313 311 307 303 300 296 293 291 292 292 291 287 284 280
350 348 346 344 343 341 339 338 336 334 333 331 330 328 326 324 324 322 320 319 318 316 315 312 310 311 312 311 311 309 305 300 297 292 288 288 289 290 289 288 285 283
344 343 341 339 338 336 334 333 332 330 328 327 325 324 322 321 319 318 316 315 314 313 312 310 308 308 310 310 308 307 304 299 293 287 284 285 287 287 286 287 286 284